Location: Czu?�w
(50.1404°N, 18.9919°E)
Time: 03:18:19
(UTC+00:00)

Cosmos 1346 Rocket - Pass Details

Date: 27 October 2020
Orbit: 535 x 543 km, 81.2° (Epoch: 27 November)

Event Time Altitude Azimuth Distance (km) Brightness Sun altitude
Rises 16:07:32 0° 359° (N) 2,717 6.2 -6.8°
Reaches altitude 10° 16:10:14 10° 18° (NNE) 1,820 5.2 -7.2°
Maximum altitude 16:13:07 19° 64° (ENE) 1,350 4.2 -7.7°
Drops below altitude 10° 16:15:58 10° 110° (ESE) 1,812 4.9 -8.1°
Enters shadow 16:18:38 - 129° (SE) 2,696 6.0 -8.6°
